Simultaneous Nadir Overpasses (SNOs) Predictions

Prediction of SNOs between GOES-16 and LANDSAT-8 Satellite Orbit:

Table of predicted SNOs for the next 14.0 days since TLE Epoch: 9/2/2023
Index Date Time (GOES-16) GOES-16 Lat,Lon LANDSAT-8 Lat,Lon Distance(km) Time Diff (sec)
1 09/02/2023 14:56:58 -0.05, -75.21 -0.93, -70.96 482.81 80
2 09/03/2023 03:15:42 0.05, -75.20 -0.18, -76.15 108.56 80
3 09/05/2023 03:06:10 0.05, -75.22 0.46, -73.19 229.89 80
4 09/05/2023 15:24:46 -0.05, -75.23 0.60, -78.36 354.50 80
5 09/07/2023 15:12:33 -0.05, -75.25 0.00, -75.38 15.61 80
6 09/09/2023 15:03:01 -0.04, -75.27 -0.67, -72.43 324.08 80
7 09/10/2023 03:24:24 0.04, -75.27 -0.48, -77.61 266.64 80
8 09/12/2023 03:09:31 0.04, -75.30 0.15, -74.64 74.07 80
9 09/14/2023 02:57:18 0.04, -75.34 0.80, -71.68 415.51 80
10 09/14/2023 15:21:14 -0.04, -75.36 0.25, -76.84 168.05 80
